Point Lay, AK

2:42 AM AKDT on May 27, 2017 (GMT -0800)
Point Lay

Weather History for PPIZ - March, 2014

Change the Weather History Date:

Saturday, March 8, 2014

  Actual Average Record
Temperature  
Mean Temperature -20 °F -  
Max Temperature -13 °F -2 °F 18 °F (1998)
Min Temperature -27 °F -12 °F -35 °F (2012)
Degree Days  
Heating Degree Days 85    
Moisture  
Dew Point -26 °F    
Average Humidity 75    
Maximum Humidity 79    
Minimum Humidity 69    
Precipitation  
Precipitation 0.00 in - - ()
Sea Level Pressure  
Sea Level Pressure 30.16 in    
Wind  
Wind Speed 6 mph (NNE)    
Max Wind Speed 12 mph    
Max Gust Speed -    
Averages and records for this station are not official NWS values.
T = Trace of Precipitation, MM = Missing Value Source: NWS Daily Summary

Daily Weather History Graph

Daily Weather History Graph

Search for Another Location

Airport or City:

Trip Planner

Search our weather history database for the weather conditions in past years. The results will help you decide how hot, cold, wet, or windy it might be!

Date:

Astronomy

Mar. 08, 2014 Rise Set
Actual Time 8:44 AM AKST 7:22 PM AKST
Civil Twilight 7:44 AM AKST 8:22 PM AKST
Nautical Twilight 6:34 AM AKST 9:34 PM AKST
Astronomical Twilight 5:14 AM AKST 10:54 PM AKST
Moon 9:30 AM AKST (3/8) 6:35 AM AKST (3/8)
Length of Visible Light 12h 38m
Length of Day
10h 38m
First Quarter, 53% of the Moon is Illuminated
Mar 8
First Quarter
Mar 16
Full
Mar 23
Last Quarter
Mar 30
New
Apr 7
First Quarter

Hourly Weather History & Observations

Time (AKST) Temp. Windchill Dew Point Humidity Pressure Visibility Wind Dir Wind Speed Gust Speed Precip Events Conditions
12:16 AM -23.8 °F -39.8 °F -29.2 °F 76% 30.19 in - NNE 5.8 mph - N/A   Clear
12:35 AM -20.2 °F -37.3 °F -27.4 °F 69% 30.19 in - NNE 6.9 mph - N/A   Mostly Cloudy
12:56 AM -20.9 °F -36.4 °F -26.9 °F 74% 30.20 in - NE 5.8 mph - N/A   Clear
1:32 AM -23.8 °F -41.6 °F -29.2 °F 76% 30.19 in - NE 6.9 mph - N/A   Mostly Cloudy
1:43 AM -23.8 °F -41.6 °F -29.2 °F 76% 30.18 in - NE 6.9 mph - N/A   Clear
1:56 AM -22.0 °F -43.6 °F -27.9 °F 74% 30.20 in - NNE 10.4 mph - N/A   Clear
2:10 AM -20.2 °F -40.1 °F -27.4 °F 69% 30.18 in - NE 9.2 mph - N/A   Mostly Cloudy
2:20 AM -20.2 °F -40.1 °F -27.4 °F 69% 30.18 in - NE 9.2 mph - N/A   Clear
2:56 AM -20.2 °F - -27.4 °F 69% 30.18 in - North - - N/A   Clear
3:56 AM -22.9 °F -42.1 °F -27.9 °F 77% 30.19 in - NE 8.1 mph - N/A   Clear
4:56 AM -24.9 °F -44.5 °F -31.0 °F 73% 30.19 in - NNE 8.1 mph - N/A   Clear
5:56 AM -25.6 °F -43.8 °F -32.8 °F 69% 30.17 in - NNE 6.9 mph - N/A   Clear
6:56 AM -26.9 °F -45.3 °F -33.0 °F 73% 30.18 in - NNE 6.9 mph - N/A   Clear
7:56 AM -24.9 °F -44.5 °F -31.0 °F 73% 30.17 in - NE 8.1 mph - N/A   Mostly Cloudy
8:09 AM -25.6 °F -45.4 °F -32.8 °F 69% 30.16 in - NE 8.1 mph - N/A   Mostly Cloudy
8:39 AM -27.4 °F -41.9 °F -34.6 °F 69% 30.16 in - NE 4.6 mph - N/A   Mostly Cloudy
8:56 AM -26.9 °F -41.2 °F -33.0 °F 73% 30.18 in - NE 4.6 mph - N/A   Overcast
9:56 AM -24.0 °F -35.2 °F -29.9 °F 74% 30.17 in - NNE 3.5 mph - N/A   Overcast
10:17 AM -23.8 °F -35.0 °F -29.2 °F 76% 30.16 in - NNE 3.5 mph - N/A   Overcast
10:37 AM -20.2 °F - -27.4 °F 69% 30.16 in - Calm Calm - N/A   Overcast
10:56 AM -20.9 °F - -26.9 °F 74% 30.18 in - Calm Calm - N/A   Overcast
11:09 AM -20.2 °F - -25.6 °F 76% 30.16 in - Calm Calm - N/A   Overcast
11:38 AM -20.2 °F -30.9 °F -25.6 °F 76% 30.16 in - NE 3.5 mph - N/A   Overcast
11:56 AM -20.9 °F -34.3 °F -26.9 °F 74% 30.17 in - North 4.6 mph - N/A   Overcast
12:30 PM -20.2 °F -33.5 °F -25.6 °F 76% 30.16 in - North 4.6 mph - N/A   Clear
12:56 PM -18.9 °F -32.0 °F -24.9 °F 74% 30.17 in - North 4.6 mph - N/A   Clear
1:56 PM -15.9 °F -30.4 °F -20.9 °F 78% 30.17 in - North 5.8 mph - N/A   Clear
2:47 PM -16.6 °F -32.9 °F -22.0 °F 76% 30.15 in - NNE 6.9 mph - N/A   Mostly Cloudy
2:56 PM -17.0 °F -31.7 °F -22.0 °F 78% 30.17 in - NNE 5.8 mph - N/A   Mostly Cloudy
3:37 PM -14.8 °F -24.8 °F -20.2 °F 77% 30.15 in - NE 3.5 mph - N/A   Mostly Cloudy
3:56 PM -13.9 °F -26.1 °F -19.8 °F 75% 30.17 in - NNE 4.6 mph - N/A   Mostly Cloudy
4:44 PM -14.8 °F -24.8 °F -20.2 °F 77% 30.14 in - NNE 3.5 mph - N/A   Mostly Cloudy
4:56 PM -13.9 °F -23.7 °F -18.9 °F 78% 30.15 in - NE 3.5 mph - N/A   Mostly Cloudy
5:14 PM -13.0 °F - -18.4 °F 77% 30.14 in - Calm Calm - N/A   Mostly Cloudy
5:56 PM -13.0 °F -25.1 °F -17.9 °F 79% 30.15 in - North 4.6 mph - N/A   Mostly Cloudy
6:24 PM -13.0 °F -25.1 °F -18.4 °F 77% 30.12 in - North 4.6 mph - N/A   Mostly Cloudy
6:56 PM -13.9 °F -29.7 °F -18.9 °F 78% 30.14 in - North 6.9 mph - N/A   Mostly Cloudy
7:24 PM -16.6 °F -32.9 °F -22.0 °F 76% 30.12 in - North 6.9 mph - N/A   Clear
7:56 PM -15.9 °F -36.0 °F -20.9 °F 78% 30.13 in - North 10.4 mph - N/A   Clear
8:56 PM -15.0 °F -35.9 °F -19.8 °F 79% 30.13 in - North 11.5 mph - N/A   Mostly Cloudy
9:56 PM -15.0 °F -33.7 °F -20.9 °F 75% 30.12 in - North 9.2 mph - N/A   Clear
10:56 PM -17.9 °F -30.7 °F -24.0 °F 74% 30.12 in - NNE 4.6 mph - N/A   Clear
11:56 PM -18.4 °F - -23.8 °F 76% 30.10 in - Calm Calm - N/A   Clear